Wind_Speed
8 8 8 8 9 9 10 10 11 10 10 11 11 11 11 10 11 11 11 11 11 11 11 11 11 11 12 12 13 12 12 12 12 12 12 12 13 13 13 13 13 14 14
8 8 8 8 9 9 9 9 10 10 10 11 11 11 11 11 11 11 11 11 11 11 11 11 11 11 12 12 12 12 12 12 12 12 13 13 13 13 13 13 13 13 14
8 8 8 8 9 9 9 10 10 10 10 11 11 12 12 12 13 12 12 11 11 11 11 10 10 11 11 12 12 11 11 11 12 12 12 13 13 13 13 13 13 13 14
7 8 8 8 8 8 8 9 9 9 9 10 10 10 11 12 12 12 11 11 11 11 10 10 11 11 12 12 12 11 11 11 12 12 12 12 12 12 13 13 13 14 14
5 6 6 6 7 7 7 7 8 8 8 9 9 9 10 12 12 12 11 11 11 11 11 11 12 12 13 13 13 12 11 11 12 12 12 12 12 13 13 14 15 14 14
4 4 4 5 5 6 6 6 7 7 7 7 8 9 9 10 11 12 11 11 11 11 11 12 12 13 12 13 13 12 12 11 11 11 11 12 12 12 13 14 15 15 15
3 3 3 3 3 5 5 6 6 6 6 7 7 8 8 9 10 10 11 11 11 11 11 11 12 12 12 12 12 12 11 11 11 11 12 12 12 13 14 14 15 15 15
3 3 3 3 3 3 4 5 5 6 6 6 6 7 7 7 9 9 9 10 11 11 11 12 12 12 12 11 11 11 12 12 12 12 12 13 13 14 14 15 15 16 16
2 3 3 3 4 4 4 5 5 5 5 5 5 5 6 6 8 9 10 10 11 11 11 11 11 11 11 11 11 11 12 12 13 13 13 14 14 15 15 16 16 17 17
3 3 3 3 3 4 5 5 5 5 5 6 6 6 7 6 7 8 9 9 9 10 10 11 11 11 11 11 11 11 12 13 13 14 14 14 15 15 16 16 17 18 18
4 4 4 4 3 4 4 4 5 5 5 6 6 7 7 7 7 7 8 8 9 9 10 11 11 11 11 11 12 12 12 13 13 13 14 15 15 15 16 17 17 18 18
4 4 4 4 4 4 5 5 5 5 6 6 6 6 6 5 6 6 7 8 9 9 10 11 11 12 12 12 12 12 12 13 13 14 15 15 15 16 16 16 17 18 18
4 4 4 4 5 5 6 6 6 6 6 6 6 6 5 5 5 6 7 8 8 8 9 10 11 11 12 12 12 12 13 14 14 14 14 15 16 17 17 18 18 19 19
4 5 5 5 5 5 5 6 6 6 6 6 6 5 5 6 6 7 7 8 9 9 9 10 10 11 12 13 12 12 13 14 14 15 15 16 16 17 18 18 19 19 20
5 5 5 5 5 5 6 6 6 7 7 6 6 6 6 6 7 7 8 8 9 9 10 10 10 11 12 13 13 13 13 14 15 15 16 16 18 19 19 19 20 20 21
6 5 5 5 6 6 7 7 7 7 7 7 7 7 7 7 7 7 7 8 9 9 10 10 10 11 12 13 13 13 14 14 15 16 16 18 19 19 20 21 21 22 22
6 6 6 6 6 7 7 8 7 7 7 7 7 7 7 7 7 8 8 9 9 10 10 10 11 12 12 13 14 15 15 16 16 16 17 18 19 20 21 22 22 23 23
7 8 7 7 7 8 8 8 8 7 7 7 8 8 8 8 9 9 9 10 10 11 11 11 11 12 12 13 14 15 16 17 17 18 18 19 20 21 21 22 23 24 24
8 8 8 8 8 8 8 8 8 8 8 8 9 9 9 9 9 10 10 10 11 11 11 12 12 13 13 14 15 16 17 18 18 18 19 20 21 22 23 23 24 25 25
9 9 9 9 9 9 9 9 9 9 9 9 9 9 9 9 10 10 10 10 11 11 12 12 13 14 15 16 16 17 18 19 19 20 21 21 23 24 24 25 25 26 26
10 10 9 10 10 10 10 10 9 10 9 9 9 10 10 10 11 11 11 11 12 12 13 13 14 15 16 17 18 18 19 20 20 21 22 23 24 24 25 25 26 26 26
11 11 11 10 10 10 10 10 10 10 10 11 11 11 11 11 12 12 12 13 13 13 14 14 15 16 17 18 19 20 21 21 22 23 23 24 25 25 26 26 26 27 27
13 13 13 12 12 11 11 12 12 12 12 12 13 13 13 13 13 13 13 14 15 15 15 16 17 18 19 20 21 21 22 22 23 24 24 25 26 26 26 27 27 27 28
13 13 13 14 13 13 13 13 13 13 13 14 14 14 15 14 14 15 15 16 17 17 18 18 19 19 20 21 22 22 23 23 24 25 26 26 27 28 28 27 28 28 29
14 14 14 14 15 15 15 15 15 15 15 15 15 15 15 16 16 16 17 18 19 19 20 20 21 22 22 23 23 24 25 26 26 26 27 28 28 28 28 28 29 29 29
16 16 16 16 16 16 17 17 17 16 16 16 16 16 17 17 17 18 19 20 21 22 22 23 23 24 24 25 26 26 27 27 27 28 29 30 30 30 29 29 30 30 30
Wind_Direction
262 260 262 261 259 258 256 258 261 261 251 247 244 244 244 243 246 246 242 244 247 251 252 251 254 253 254 257 258 259 261 261 261 263 264 265 267 266 266 268 272 276 275
263 261 263 263 261 259 258 260 262 259 256 254 249 245 241 240 242 242 239 238 243 248 250 251 255 256 258 261 260 257 261 261 262 263 264 265 266 267 270 272 275 276 277
263 261 262 261 261 259 258 259 261 258 259 258 257 251 245 241 242 241 239 239 242 246 250 251 256 259 260 260 259 261 263 260 262 262 263 264 266 267 270 272 275 278 278
265 261 260 259 259 259 257 258 258 259 257 259 260 256 249 243 241 240 241 240 243 249 251 254 257 258 259 260 259 262 263 264 264 265 265 266 270 270 272 273 277 279 278
272 262 260 260 258 258 256 259 259 258 259 260 259 258 257 251 244 240 242 244 246 248 250 255 259 260 260 260 262 263 264 267 268 268 267 268 271 272 273 276 277 280 279
277 275 265 262 260 259 258 259 260 257 261 259 259 259 259 255 247 242 243 246 247 250 252 255 260 264 265 266 262 263 265 267 269 268 268 270 272 274 276 278 279 279 280
279 282 276 271 269 266 267 268 260 261 264 263 260 259 254 253 251 248 246 250 251 253 257 259 262 264 266 266 264 264 265 267 268 269 270 271 273 276 278 281 282 281 282
277 276 273 268 269 272 271 266 263 268 275 274 266 261 256 252 253 252 253 254 253 251 255 260 265 265 263 265 264 265 267 266 269 273 276 276 278 279 280 282 284 284 284
282 283 276 270 269 275 281 276 276 283 283 278 279 278 274 263 256 255 258 257 256 254 255 258 264 267 266 265 266 268 268 268 271 274 278 280 281 280 280 281 281 283 283
283 287 286 283 277 277 276 273 279 288 285 282 281 282 281 269 263 259 261 260 258 257 258 263 267 269 269 269 270 269 271 271 272 276 280 282 283 282 282 282 282 282 280
288 288 284 288 281 283 285 280 280 286 287 284 284 285 277 268 263 259 262 264 264 263 265 267 267 271 273 274 274 273 274 275 277 280 282 284 284 284 285 285 284 282 281
296 296 292 291 291 286 287 291 283 291 288 287 285 288 280 270 266 270 269 267 270 266 266 268 271 272 275 278 278 275 275 277 280 283 284 284 285 286 286 286 284 284 283
301 291 296 295 293 289 287 289 287 293 291 284 282 284 279 273 275 278 278 276 276 272 270 272 273 274 276 280 279 277 279 279 280 281 283 285 287 287 286 285 285 286 287
304 295 298 298 298 296 293 291 293 293 289 283 276 279 274 277 285 285 284 281 280 279 277 275 275 277 276 279 280 278 281 283 282 281 283 286 288 288 288 288 287 287 288
294 292 296 297 302 302 303 301 298 295 290 281 271 271 272 280 283 283 284 285 285 285 281 279 278 280 280 281 281 281 283 283 285 284 285 287 289 290 291 290 288 288 289
290 287 288 289 293 294 300 302 301 299 294 285 272 268 269 274 279 281 286 288 288 289 287 283 282 284 283 284 285 285 286 285 285 286 287 289 290 289 291 291 290 288 287
287 288 289 292 292 293 294 296 294 295 291 284 275 275 275 280 284 289 289 289 289 290 288 286 288 289 288 287 286 286 288 288 288 290 291 292 292 293 292 292 291 290 289
288 286 289 293 296 295 292 294 292 291 290 287 283 282 282 281 284 288 289 289 289 287 284 285 286 287 287 287 288 289 289 290 290 291 292 293 296 297 298 296 293 291 290
290 287 287 289 292 293 291 293 294 294 290 287 287 284 283 283 285 285 286 288 290 288 286 285 285 287 288 289 290 291 291 292 291 293 296 298 299 299 298 297 295 293 291
289 288 288 287 288 289 289 291 291 296 292 288 287 285 282 283 286 286 286 287 289 288 288 287 287 288 290 292 292 293 293 294 296 298 299 300 300 300 299 297 296 295 293
283 284 284 285 285 283 284 286 290 291 290 288 286 284 282 281 284 285 287 288 290 292 293 292 292 291 292 293 294 297 298 298 298 299 299 299 300 301 302 300 299 297 296
279 280 281 281 282 284 283 283 285 287 287 286 285 285 283 282 283 284 286 288 290 292 293 295 296 297 297 298 299 299 300 299 298 298 299 299 300 301 301 301 300 299 298
277 278 277 274 275 279 283 283 282 282 284 284 284 285 286 283 282 284 286 289 291 291 293 294 297 298 299 299 300 300 300 300 300 300 300 301 301 302 302 302 300 299 299
275 277 276 274 273 274 279 282 281 281 282 283 283 284 284 282 283 285 286 288 289 289 290 293 296 297 299 299 299 300 300 300 301 301 301 301 302 303 302 303 302 301 299
272 273 274 275 274 275 276 279 283 282 281 281 283 284 284 282 282 285 286 287 288 288 289 291 294 296 297 297 298 300 299 299 300 300 300 301 302 302 302 302 302 302 300
271 272 273 274 274 274 275 277 280 282 281 282 283 285 286 286 283 284 286 288 289 289 290 291 292 293 295 296 298 298 299 298 298 299 300 301 302 301 301 301 301 301 299
Height
5856 5856 5856 5855 5855 5855 5855 5855 5855 5855 5855 5855 5856 5856 5856 5857 5857 5857 5857 5858 5859 5859 5859 5859 5859 5859 5860 5860 5860 5860 5860 5859 5859 5859 5859 5859 5859 5859 5859 5858 5858 5858 5857
5854 5854 5853 5853 5853 5853 5853 5853 5853 5853 5853 5853 5853 5854 5854 5854 5855 5855 5855 5856 5856 5857 5857 5857 5857 5857 5857 5857 5857 5857 5857 5857 5857 5857 5856 5856 5856 5856 5856 5856 5855 5855 5854
5852 5852 5851 5851 5851 5851 5851 5851 5851 5851 5851 5851 5851 5851 5852 5852 5852 5852 5853 5853 5854 5854 5854 5855 5855 5855 5855 5855 5855 5854 5854 5854 5854 5854 5854 5854 5853 5853 5853 5853 5852 5852 5851
5850 5849 5849 5849 5849 5849 5849 5849 5849 5849 5849 5849 5849 5849 5849 5849 5849 5850 5850 5851 5852 5852 5852 5852 5852 5852 5852 5852 5852 5852 5852 5852 5852 5851 5851 5851 5851 5850 5850 5850 5849 5849 5848
5848 5847 5847 5847 5847 5847 5847 5847 5847 5847 5846 5846 5846 5846 5846 5847 5847 5847 5848 5848 5849 5849 5850 5850 5850 5850 5850 5850 5850 5849 5849 5849 5849 5849 5848 5848 5848 5848 5847 5847 5846 5846 5845
5847 5846 5846 5846 5846 5846 5845 5845 5845 5845 5845 5844 5844 5844 5844 5844 5844 5845 5845 5846 5846 5847 5847 5847 5847 5847 5847 5847 5847 5847 5846 5846 5846 5846 5846 5845 5845 5845 5844 5844 5843 5842 5842
5846 5845 5845 5845 5844 5844 5844 5844 5844 5843 5843 5843 5842 5842 5842 5842 5842 5843 5843 5844 5844 5844 5844 5844 5844 5844 5844 5844 5844 5844 5844 5844 5844 5843 5843 5842 5842 5842 5841 5840 5839 5839 5838
5845 5845 5844 5844 5843 5843 5843 5842 5842 5842 5841 5841 5841 5841 5840 5841 5840 5841 5841 5842 5842 5842 5842 5842 5842 5841 5841 5842 5842 5841 5841 5841 5841 5840 5840 5840 5839 5838 5838 5837 5836 5835 5834
5844 5844 5843 5843 5843 5842 5842 5841 5841 5841 5840 5840 5840 5839 5839 5839 5838 5839 5839 5840 5840 5839 5839 5839 5839 5839 5839 5839 5839 5839 5838 5838 5838 5837 5837 5836 5836 5835 5834 5833 5832 5831 5831
5844 5843 5842 5842 5842 5841 5841 5840 5840 5840 5839 5839 5838 5838 5837 5837 5837 5837 5837 5837 5837 5837 5837 5836 5836 5836 5836 5836 5836 5835 5835 5835 5835 5834 5833 5833 5832 5831 5830 5829 5828 5827 5826
5843 5842 5842 5841 5841 5840 5840 5839 5839 5838 5838 5838 5837 5836 5835 5835 5835 5835 5835 5835 5835 5834 5834 5834 5834 5833 5833 5833 5832 5832 5832 5831 5831 5830 5830 5829 5828 5827 5826 5825 5824 5823 5822
5842 5842 5841 5840 5840 5839 5839 5838 5838 5837 5837 5836 5835 5835 5834 5833 5833 5833 5833 5833 5832 5832 5832 5831 5831 5831 5830 5830 5829 5829 5829 5828 5827 5826 5826 5825 5824 5823 5822 5821 5819 5818 5817
5841 5841 5840 5839 5839 5838 5838 5837 5836 5836 5835 5834 5834 5833 5832 5832 5832 5831 5831 5830 5830 5829 5829 5829 5828 5828 5827 5827 5826 5826 5825 5824 5824 5823 5822 5821 5820 5818 5817 5816 5815 5813 5812
5840 5840 5839 5838 5838 5837 5836 5836 5835 5834 5833 5833 5832 5831 5831 5831 5830 5830 5829 5828 5827 5827 5826 5826 5825 5825 5824 5824 5823 5822 5822 5821 5820 5819 5817 5816 5815 5814 5812 5811 5810 5808 5807
5839 5838 5838 5837 5837 5836 5835 5834 5833 5832 5832 5831 5830 5830 5830 5829 5829 5828 5827 5826 5826 5825 5824 5823 5823 5822 5821 5821 5820 5819 5818 5817 5816 5814 5813 5812 5810 5809 5807 5806 5804 5802 5801
5838 5837 5837 5836 5835 5835 5834 5833 5832 5831 5830 5829 5829 5829 5828 5828 5827 5826 5825 5825 5824 5823 5822 5821 5820 5819 5818 5817 5816 5815 5814 5813 5811 5810 5808 5807 5805 5803 5802 5800 5798 5796 5794
5836 5836 5835 5834 5834 5833 5832 5831 5830 5829 5828 5828 5827 5827 5826 5826 5825 5824 5823 5822 5821 5821 5820 5819 5818 5816 5815 5814 5813 5811 5810 5809 5807 5805 5804 5802 5800 5798 5795 5793 5791 5789 5787
5835 5834 5833 5833 5832 5831 5830 5829 5828 5827 5826 5826 5825 5825 5824 5824 5823 5822 5821 5820 5819 5818 5817 5816 5815 5814 5812 5811 5809 5808 5806 5804 5803 5801 5799 5797 5794 5792 5789 5787 5784 5782 5780
5833 5832 5831 5830 5830 5829 5828 5827 5826 5825 5824 5823 5823 5822 5822 5821 5820 5819 5818 5817 5816 5815 5814 5813 5812 5810 5809 5807 5806 5804 5802 5800 5798 5796 5794 5791 5789 5786 5783 5780 5778 5775 5773
5830 5830 5829 5828 5827 5826 5825 5825 5824 5823 5822 5821 5820 5819 5819 5818 5817 5817 5815 5814 5813 5812 5811 5810 5808 5807 5805 5803 5802 5800 5797 5795 5793 5791 5788 5786 5783 5780 5777 5774 5771 5768 5765
5827 5827 5826 5825 5824 5824 5823 5822 5821 5820 5819 5818 5818 5817 5816 5815 5815 5814 5813 5811 5810 5809 5808 5806 5805 5803 5801 5799 5797 5795 5792 5790 5788 5785 5783 5780 5777 5774 5770 5767 5764 5760 5758
5824 5823 5823 5822 5821 5821 5820 5819 5818 5817 5816 5815 5815 5814 5813 5812 5811 5810 5809 5808 5807 5806 5804 5802 5801 5799 5797 5794 5792 5790 5788 5785 5782 5780 5777 5774 5770 5767 5763 5760 5756 5753 5750
5820 5820 5819 5818 5818 5817 5817 5816 5815 5814 5813 5812 5811 5810 5809 5808 5807 5807 5806 5804 5803 5801 5800 5798 5796 5794 5792 5790 5787 5785 5782 5779 5777 5774 5771 5767 5764 5760 5756 5753 5749 5746 5743
5816 5816 5815 5815 5814 5814 5813 5812 5811 5810 5809 5808 5807 5806 5805 5804 5803 5802 5801 5800 5799 5797 5795 5794 5792 5789 5787 5784 5782 5779 5776 5774 5771 5767 5764 5761 5757 5753 5749 5745 5742 5738 5735
5812 5812 5811 5811 5810 5810 5809 5808 5807 5806 5805 5804 5803 5802 5801 5800 5799 5798 5797 5795 5794 5792 5790 5788 5786 5783 5781 5778 5776 5773 5770 5767 5764 5760 5756 5753 5749 5746 5742 5738 5734 5730 5727
5807 5807 5806 5806 5805 5805 5804 5803 5802 5801 5800 5799 5798 5797 5796 5795 5794 5793 5791 5790 5788 5786 5784 5782 5780 5777 5775 5772 5769 5766 5763 5760 5757 5753 5749 5745 5741 5738 5735 5731 5726 5722 5719